Powrót do katalogu

SL-8 R/B

AktywnyPO
NORAD 15360·ROCKET BODY·🇷🇺 Russia

Wystrzelony Oct 11, 1984 z Plesetsk Cosmodrome

Loading…

Następne Przeloty (najbliższe 24 godziny)

TLE

ŚwieżeSource: Space-Track

Epoka: Sep 14, 2026, 10:05 UTC

1 15360U 84109B   26257.42040784  .00000123  00000-0  10918-3 0  9996
2 15360  82.9367  59.0902 0040503 329.0287  30.8482 13.77070684105925

Śledź SL-8 R/B w czasie rzeczywistym z AllMySat

Download on the App Store